Jaffrey, NH

2:20 PM EDT on September 25, 2017 (GMT -0400)
Jaffrey Airport-Silver Ranch

Weather History for KAFN - February, 2013

Change the Weather History Date:

Saturday, February 23, 2013

  Actual Average Record
Temperature  
Mean Temperature 29 °F -  
Max Temperature 30 °F 33 °F 62 °F (2017)
Min Temperature 28 °F 15 °F -4 °F (2015)
Degree Days  
Heating Degree Days 36    
Moisture  
Dew Point 27 °F    
Average Humidity 87    
Maximum Humidity 100    
Minimum Humidity 69    
Precipitation  
Precipitation 0.06 in - - ()
Sea Level Pressure  
Sea Level Pressure 30.09 in    
Wind  
Wind Speed 3 mph (SSE)    
Max Wind Speed 13 mph    
Max Gust Speed -    
Visibility 6 miles    
Events Rain , Snow    
Averages and records for this station are not official NWS values.
T = Trace of Precipitation, MM = Missing Value Source: NWS Daily Summary

Daily Weather History Graph

Daily Weather History Graph

Search for Another Location

Airport or City:

Trip Planner

Search our weather history database for the weather conditions in past years. The results will help you decide how hot, cold, wet, or windy it might be!

Date:

Astronomy

Feb. 23, 2013 Rise Set
Actual Time 6:32 AM EST 5:30 PM EST
Civil Twilight 6:04 AM EST 5:58 PM EST
Nautical Twilight 5:31 AM EST 6:31 PM EST
Astronomical Twilight 4:58 AM EST 7:04 PM EST
Moon 3:36 PM EST (2/23) 4:55 AM EST (2/23)
Length of Visible Light 11h 54m
Length of Day
10h 57m
Waxing Gibbous, 95% of the Moon is Illuminated
Feb 23
Waxing Gibbous
Feb 25
Full
Mar 4
Last Quarter
Mar 11
New
Mar 19
First Quarter

Hourly Weather History & Observations

Time (EST) Temp. Windchill Dew Point Humidity Pressure Visibility Wind Dir Wind Speed Gust Speed Precip Events Conditions
12:52 AM 28.0 °F 21.7 °F 19.0 °F 69% 30.31 in 10.0 mi SSE 5.8 mph - N/A   Overcast
1:52 AM 28.0 °F 21.7 °F 19.9 °F 72% 30.30 in 10.0 mi South 5.8 mph - N/A   Overcast
2:52 AM 28.0 °F 24.2 °F 21.0 °F 75% 30.29 in 10.0 mi South 3.5 mph - N/A   Overcast
3:52 AM 28.0 °F - 21.0 °F 75% 30.26 in 10.0 mi Calm Calm - N/A   Overcast
4:52 AM 28.0 °F - 21.0 °F 75% 30.25 in 10.0 mi Calm Calm - N/A   Overcast
5:47 AM 28.4 °F 23.3 °F 21.2 °F 74% 30.20 in 10.0 mi South 4.6 mph - N/A   Overcast
5:52 AM 28.0 °F 21.7 °F 21.9 °F 78% 30.25 in 10.0 mi South 5.8 mph - N/A   Overcast
6:52 AM 28.0 °F 22.8 °F 21.9 °F 78% 30.24 in 10.0 mi South 4.6 mph - N/A   Overcast
7:52 AM 28.9 °F 23.9 °F 21.9 °F 75% 30.24 in 10.0 mi Variable 4.6 mph - N/A   Overcast
8:52 AM 30.0 °F 24.1 °F 24.1 °F 79% 30.22 in 10.0 mi South 5.8 mph - N/A   Overcast
9:52 AM 30.0 °F 20.0 °F 25.0 °F 82% 30.20 in 10.0 mi South 12.7 mph - N/A   Overcast
10:52 AM 30.9 °F 22.2 °F 25.0 °F 79% 30.19 in 10.0 mi South 10.4 mph - N/A   Overcast
11:52 AM 30.9 °F 25.2 °F 26.1 °F 82% 30.16 in 9.0 mi SSE 5.8 mph - N/A   Overcast
12:08 PM 30.2 °F 25.4 °F 26.6 °F 86% 30.09 in 10.0 mi South 4.6 mph - N/A   Overcast
12:52 PM 30.9 °F 25.2 °F 26.1 °F 82% 30.13 in 10.0 mi SSE 5.8 mph - N/A   Overcast
1:52 PM 30.9 °F 26.2 °F 27.0 °F 85% 30.13 in 5.0 mi Variable 4.6 mph - N/A   Overcast
2:33 PM 30.2 °F - 28.4 °F 93% 30.07 in 2.0 mi Calm Calm - 0.00 in Snow Light Snow
2:43 PM 30.2 °F - 28.4 °F 93% 30.06 in 1.5 mi Calm Calm - 0.01 in Snow Light Snow
2:50 PM 30.2 °F 26.7 °F 28.4 °F 93% 30.06 in 1.2 mi SE 3.5 mph - 0.01 in Snow Light Snow
2:52 PM 30.9 °F 27.5 °F 28.9 °F 92% 30.11 in 1.5 mi SSE 3.5 mph - 0.01 in Snow Light Snow
3:08 PM 30.2 °F - 28.4 °F 93% 30.05 in 1.5 mi Calm Calm - 0.01 in Snow Light Snow
3:17 PM 30.2 °F 25.4 °F 28.4 °F 93% 30.04 in 2.0 mi Variable 4.6 mph - 0.01 in Snow Light Snow
3:31 PM 30.2 °F 26.7 °F 28.4 °F 93% 30.04 in 3.0 mi Variable 3.5 mph - 0.02 in Snow Light Snow
3:52 PM 30.9 °F - 28.9 °F 92% 30.09 in 5.0 mi Calm Calm - 0.02 in   Overcast
4:24 PM 30.2 °F - 28.4 °F 93% 30.03 in 7.0 mi Calm Calm - N/A   Overcast
4:31 PM 30.2 °F - 28.4 °F 93% 30.03 in 7.0 mi Calm Calm - N/A   Overcast
4:52 PM 30.9 °F - 28.9 °F 92% 30.08 in 6.0 mi Calm Calm - N/A   Overcast
5:34 PM 30.2 °F - 28.4 °F 93% 30.01 in 4.0 mi Calm Calm - 0.00 in Snow Light Snow
5:44 PM 30.2 °F - 28.4 °F 93% 30.01 in 2.5 mi Calm Calm - 0.00 in Snow Light Snow
5:52 PM 30.9 °F - 28.9 °F 92% 30.05 in 2.5 mi Calm Calm - 0.00 in Snow Light Snow
5:56 PM 30.2 °F - 28.4 °F 93% 30.00 in 2.5 mi Calm Calm - 0.00 in Snow Light Snow
6:05 PM 30.2 °F - 28.4 °F 93% 30.00 in 2.5 mi Calm Calm - 0.00 in Snow Light Snow
6:07 PM 30.2 °F 26.7 °F 28.4 °F 93% 30.00 in 3.0 mi Variable 3.5 mph - 0.00 in Snow Light Snow
6:52 PM 30.9 °F - 28.9 °F 92% 30.04 in 4.0 mi Calm Calm - 0.00 in Snow Light Snow
7:52 PM 30.9 °F 26.2 °F 28.9 °F 92% 30.03 in 5.0 mi Variable 4.6 mph - 0.00 in Snow Light Snow
8:52 PM 30.9 °F 27.5 °F 28.9 °F 92% 30.01 in 9.0 mi Variable 3.5 mph - 0.00 in   Overcast
9:52 PM 30.9 °F - 28.9 °F 92% 29.99 in 8.0 mi Calm Calm - N/A   Overcast
10:18 PM 30.2 °F - 28.4 °F 93% 29.93 in 3.0 mi Calm Calm - 0.00 in Rain Light Freezing Rain
10:48 PM 30.2 °F - 30.2 °F 100% 29.92 in 4.0 mi Calm Calm - 0.01 in Snow Light Snow
10:52 PM 30.9 °F - 28.9 °F 92% 29.96 in 4.0 mi Calm Calm - 0.01 in Snow Light Snow
11:20 PM 30.2 °F - 28.4 °F 93% 29.90 in 2.0 mi Calm Calm - 0.01 in Snow Light Snow
11:28 PM 30.2 °F - 28.4 °F 93% 29.90 in 3.0 mi Calm Calm - 0.01 in Snow Light Snow
11:52 PM 30.9 °F - 28.9 °F 92% 29.94 in 2.0 mi Calm Calm - 0.02 in Snow Light Snow